Weather History for KOPM - February, 2012

Change the Weather History Date:

Wednesday, February 29, 2012

  Actual Average Record
Temperature  
Mean Temperature 68 °F -  
Max Temperature 69 °F - - ()
Min Temperature 68 °F - - ()
Cooling Degree Days 4    
Growing Degree Days 18 (Base 50)    
Moisture  
Dew Point 68 °F    
Average Humidity 97    
Maximum Humidity 100    
Minimum Humidity 94    
Precipitation  
Precipitation 0.00 in - - ()
Sea Level Pressure  
Sea Level Pressure 29.94 in    
Wind  
Wind Speed 19 mph (SE)    
Max Wind Speed 26 mph    
Max Gust Speed -    
Visibility 2 miles    
Events Fog    
Averages and records for this station are not official NWS values.
T = Trace of Precipitation, MM = Missing Value Source: NWS Daily Summary

Daily Weather History Graph

Daily Weather History Graph

Search for Another Location

Airport or City:

Trip Planner

Search our weather history database for the weather conditions in past years. The results will help you decide how hot, cold, wet, or windy it might be!

Date:

Astronomy

Feb. 29, 2012 Rise Set
Actual Time 6:52 AM CST 6:28 PM CST
Civil Twilight 6:28 AM CST 6:51 PM CST
Nautical Twilight 6:01 AM CST 7:18 PM CST
Astronomical Twilight 5:34 AM CST 7:45 PM CST
Moon 11:26 AM CST (2/29) 12:35 AM CST (2/29)
Length of Visible Light 12h 23m
Length of Day
11h 36m
Waxing Crescent, 47% of the Moon is Illuminated
Feb 29
Waxing Crescent
Feb 29
First Quarter
Mar 8
Full
Mar 14
Last Quarter
Mar 22
New

Hourly Weather History & Observations

Time (CST) Temp. Dew Point Humidity Pressure Visibility Wind Dir Wind Speed Gust Speed Precip Events Conditions
12:15 AM 69.8 °F 68.0 °F 94% 29.99 in 3.0 mi SSE 16.1 mph - N/A   Scattered Clouds
12:35 AM 69.8 °F 69.8 °F 100% 29.98 in 3.0 mi SSE 18.4 mph - N/A   Partly Cloudy
12:55 AM 69.8 °F 69.8 °F 100% 29.98 in 3.0 mi SSE 20.7 mph - N/A   Partly Cloudy
1:15 AM 69.8 °F 69.8 °F 100% 29.97 in 3.0 mi SSE 19.6 mph - N/A   Partly Cloudy
1:35 AM 69.8 °F 68.0 °F 94% 29.96 in 2.5 mi SSE 20.7 mph - N/A   Partly Cloudy
1:55 AM 69.8 °F 68.0 °F 94% 29.95 in 1.8 mi SSE 20.7 mph - N/A   Mostly Cloudy
2:15 AM 69.8 °F 68.0 °F 94% 29.94 in 1.5 mi SSE 23.0 mph - N/A   Mostly Cloudy
2:35 AM 69.8 °F 68.0 °F 94% 29.93 in 2.5 mi SSE 24.2 mph - N/A   Scattered Clouds
2:55 AM 69.8 °F 68.0 °F 94% 29.92 in 2.0 mi SSE 24.2 mph - N/A   Partly Cloudy
3:15 AM 69.8 °F 68.0 °F 94% 29.91 in 3.0 mi SSE 26.5 mph - N/A   Clear
3:35 AM 69.8 °F 68.0 °F 94% 29.90 in 2.5 mi SSE 25.3 mph - N/A   Clear
3:55 AM 69.8 °F 68.0 °F 94% 29.90 in 2.0 mi SSE 24.2 mph - N/A   Clear
4:15 AM 69.8 °F 68.0 °F 94% 29.90 in 2.0 mi SSE 23.0 mph - N/A   Clear
4:35 AM 69.8 °F 68.0 °F 94% 29.92 in 2.0 mi SSE 21.9 mph - N/A   Clear
4:55 AM 69.8 °F 68.0 °F 94% 29.92 in 1.8 mi SSE 20.7 mph - N/A   Mostly Cloudy
5:15 AM 68.0 °F 68.0 °F 100% 29.91 in 1.5 mi SSE 19.6 mph - N/A   Overcast
5:35 AM 68.0 °F 68.0 °F 100% 29.91 in 1.2 mi SSE 21.9 mph - N/A   Overcast
5:55 AM 68.0 °F 68.0 °F 100% 29.91 in 1.0 mi SSE 21.9 mph - N/A   Overcast
6:15 AM 68.0 °F 68.0 °F 100% 29.91 in 1.0 mi SSE 21.9 mph - N/A   Overcast
6:35 AM 68.0 °F 68.0 °F 100% 29.92 in 1.5 mi SSE 21.9 mph - N/A   Mostly Cloudy
6:55 AM 68.0 °F 68.0 °F 100% 29.92 in 1.0 mi SSE 21.9 mph - N/A   Scattered Clouds
7:15 AM 68.0 °F 68.0 °F 100% 29.92 in 0.8 mi SSE 19.6 mph - N/A   Mostly Cloudy
7:35 AM 68.0 °F 68.0 °F 100% 29.92 in 0.8 mi SSE 21.9 mph - N/A   Mostly Cloudy
7:55 AM 68.0 °F 68.0 °F 100% 29.94 in 0.8 mi SSE 20.7 mph - N/A   Overcast
8:15 AM 68.0 °F 68.0 °F 100% 29.95 in 0.2 mi SSE 19.6 mph - N/A Fog Fog
8:35 AM 68.0 °F 68.0 °F 100% 29.97 in 0.2 mi SSE 18.4 mph - N/A Fog Fog
8:55 AM 68.0 °F 68.0 °F 100% 29.97 in 0.5 mi SE 17.3 mph - N/A Fog Fog
9:15 AM 68.0 °F 68.0 °F 100% 29.97 in 1.0 mi SE 17.3 mph - N/A   Clear
9:35 AM 68.0 °F 68.0 °F 100% 29.98 in 1.0 mi SE 18.4 mph - N/A   Clear
9:55 AM 68.0 °F 68.0 °F 100% 29.98 in 0.8 mi SSE 19.6 mph - N/A   Mostly Cloudy
10:15 AM 68.0 °F 68.0 °F 100% 29.98 in 0.8 mi SSE 18.4 mph - N/A   Mostly Cloudy
10:35 AM 68.0 °F 68.0 °F 100% 29.99 in 0.8 mi SSE 15.0 mph - N/A   Mostly Cloudy
10:55 AM 68.0 °F 68.0 °F 100% 30.00 in 0.8 mi SSE 11.5 mph - N/A   Mostly Cloudy
11:15 AM 68.0 °F 68.0 °F 100% 30.00 in 0.8 mi SSE 13.8 mph - N/A   Mostly Cloudy
11:35 AM 68.0 °F 68.0 °F 100% 29.99 in 0.8 mi South 12.7 mph - N/A   Mist
11:55 AM 68.0 °F 66.2 °F 94% 29.99 in 0.8 mi South 12.7 mph - N/A   Mist
12:15 PM 68.0 °F 68.0 °F 100% 29.98 in 0.8 mi SSE 12.7 mph - N/A   Mist
12:35 PM 68.0 °F 68.0 °F 100% 29.98 in 1.0 mi SE 11.5 mph - N/A   Clear
12:55 PM 68.0 °F 68.0 °F 100% 29.97 in 1.8 mi SE 10.4 mph - N/A   Clear
1:15 PM 69.8 °F 68.0 °F 94% 29.96 in 1.8 mi SE 13.8 mph - N/A   Clear
1:35 PM 69.8 °F 68.0 °F 94% 29.95 in 2.0 mi SE 13.8 mph - N/A   Clear
1:55 PM 69.8 °F 68.0 °F 94% 29.94 in 1.8 mi ESE 15.0 mph - N/A   Clear
2:15 PM 69.8 °F 68.0 °F 94% 29.93 in 2.0 mi ESE 16.1 mph - N/A   Clear
2:35 PM 69.8 °F 68.0 °F 94% 29.93 in 2.0 mi ESE 15.0 mph - N/A   Clear
2:55 PM 69.8 °F 68.0 °F 94% 29.92 in 2.5 mi ESE 17.3 mph - N/A   Clear
3:15 PM 69.8 °F 68.0 °F 94% 29.92 in 2.5 mi ESE 15.0 mph - N/A   Clear
3:35 PM 69.8 °F 68.0 °F 94% 29.92 in 3.0 mi ESE 17.3 mph - N/A   Clear
3:55 PM 69.8 °F 68.0 °F 94% 29.92 in 3.0 mi ESE 19.6 mph - N/A   Clear
4:15 PM 69.8 °F 68.0 °F 94% 29.92 in 3.0 mi ESE 19.6 mph - N/A   Clear
4:35 PM 69.8 °F 68.0 °F 94% 29.91 in 3.0 mi ESE 20.7 mph - N/A   Clear
4:55 PM 69.8 °F 68.0 °F 94% 29.91 in 3.0 mi ESE 18.4 mph - N/A   Clear
5:15 PM 69.8 °F 68.0 °F 94% 29.91 in 3.0 mi ESE 18.4 mph - N/A   Clear
5:35 PM 69.8 °F 68.0 °F 94% 29.92 in 3.0 mi ESE 16.1 mph - N/A   Clear
5:55 PM 69.8 °F 68.0 °F 94% 29.92 in 2.5 mi ESE 12.7 mph - N/A   Clear
6:15 PM 69.8 °F 68.0 °F 94% 29.92 in 2.5 mi ESE 13.8 mph - N/A   Clear
6:35 PM 69.8 °F 68.0 °F 94% 29.92 in 2.0 mi ESE 16.1 mph - N/A   Clear
6:55 PM 69.8 °F 68.0 °F 94% 29.92 in 3.0 mi ESE 15.0 mph - N/A   Clear
7:15 PM 69.8 °F 68.0 °F 94% 29.92 in 2.0 mi ESE 16.1 mph - N/A   Clear
7:35 PM 69.8 °F 68.0 °F 94% 29.92 in 1.8 mi ESE 17.3 mph - N/A   Clear
8:15 PM 69.8 °F 68.0 °F 94% 29.93 in 2.0 mi ESE 18.4 mph - N/A   Clear
8:35 PM 69.8 °F 68.0 °F 94% 29.94 in 2.0 mi ESE 16.1 mph - N/A   Clear
8:55 PM 69.8 °F 68.0 °F 94% 29.94 in 1.8 mi ESE 16.1 mph - N/A   Clear
9:15 PM 69.8 °F 68.0 °F 94% 29.94 in 1.5 mi ESE 15.0 mph - N/A   Clear
9:35 PM 69.8 °F 68.0 °F 94% 29.95 in 1.5 mi ESE 15.0 mph - N/A   Clear
9:55 PM 69.8 °F 68.0 °F 94% 29.95 in 1.5 mi ESE 16.1 mph - N/A   Clear
10:15 PM 69.8 °F 68.0 °F 94% 29.94 in 1.2 mi ESE 18.4 mph - N/A   Clear
10:35 PM 69.8 °F 68.0 °F 94% 29.94 in 1.2 mi ESE 18.4 mph - N/A   Clear
11:15 PM 69.8 °F 68.0 °F 94% 29.94 in 1.2 mi SE 16.1 mph - N/A   Clear
11:35 PM 69.8 °F 68.0 °F 94% 29.94 in 1.0 mi SE 13.8 mph - N/A   Scattered Clouds
11:55 PM 69.8 °F 68.0 °F 94% 29.95 in 1.0 mi SE 11.5 mph - N/A   Scattered Clouds